1. Diese Seite verwendet Cookies. Wenn du dich weiterhin auf dieser Seite aufhältst, akzeptierst du unseren Einsatz von Cookies. Weitere Informationen

CS mit Rasbarry Pi und Oscam will nicht hell werden

Dieses Thema im Forum "Oscam Talk Archiv" wurde erstellt von eisbaer500, 30. Mai 2013.

  1. eisbaer500
    Offline

    eisbaer500 Newbie

    Registriert:
    27. Mai 2011
    Beiträge:
    2
    Zustimmungen:
    1
    Punkte für Erfolge:
    0
    Hallo erstmal
    Schon mal vor weg ich bin ein anfänger auf diesem gebiet, also habt etwas gedult :emoticon-0157-sun:

    So meine Hardware ist ein
    -Sky Voll abo ( V14 )
    -Rasbarry Pi typ B
    -Easymouse2
    -Dreambox 7020si
    -Edision Vip 3

    Ich bin jetzt soweit das ich der Meinung bin das der Server (Rasbarry Pi) läuft meine Dreambox auf die Karte zugreifen kann nur das Bild wird nicht hell.
    Der Edision Vip 3 will überhaut nicht klappen.
    Es wäre nur schön wenn ich wenigstens erstmal ein Reciver zum laufen hätte damit man weis das es funktioniert.
    Ich habe euch mal meinen Oscam log und die Oscam einstellungen mit angehängt.

    Wäre echt prima wenn ihr mir helfen könntet.

    Danke Gruß Eisbaer500

    [HR][/HR]OScam Log

    >> OSCam << cardserver started at Thu May 30 17:14:28 2013
    -------------------------------------------------------------------------------
    2013/05/30 17:14:28 0 s >> OSCam << cardserver started, version 1.20-unstable_svn, build r8440 (arm-linux-gnueabihf)
    2013/05/30 17:14:29 0 s creating pidfile /tmp/.oscam/oscam.pid with pid 2195
    2013/05/30 17:14:29 0 s services reloaded: 0 services freed, 1 services loaded, rejected 0
    2013/05/30 17:14:29 0 s userdb reloaded: 3 accounts loaded, 0 expired, 0 disabled
    2013/05/30 17:14:29 0 s signal handling initialized
    2013/05/30 17:14:29 0 s 135 service-id's loaded in 4ms
    2013/05/30 17:14:29 0 s cccam: initialized (fd=5, port=14102)
    2013/05/30 17:14:29 0 s V14 [mouse] creating thread for device /dev/ttyUSB0
    2013/05/30 17:14:29 0 s loadbalancer: can't read from file /var/tmp/oscam.stat
    2013/05/30 17:14:29 0 s waiting for local card init
    2013/05/30 17:14:29 1CB91B8 r V14 [mouse] Reader initialized (device=/dev/ttyUSB0, detect=cd, mhz=600, cardmhz=369)
    2013/05/30 17:14:30 1CB91B8 r V14 [mouse] card detected
    2013/05/30 17:14:31 1CB91B8 r V14 [mouse] ATR: xxxxxxxxxxxxxxxxxxxxxxxxxxxx
    2013/05/30 17:14:31 1CB91B8 r V14 [mouse] Init card protocol T0, FI=1, F=372, D=4, N=2
    2013/05/30 17:14:31 1CB91B8 r V14 [mouse] Setting baudrate to 39677 bps
    2013/05/30 17:14:31 1CB91B8 r V14 [mouse] Calculated work ETU is 15.50 us
    2013/05/30 17:14:31 1CB91B8 r V14 [mouse] ATR Fsmax is: 5 Mhz, clocking card to wanted user cardspeed of 6.00 Mhz (specified in reader->mhz)
    2013/05/30 17:14:32 1CB91B8 r V14 [mouse] Card type: P1TV
    2013/05/30 17:14:32 1CB91B8 r V14 [mouse] Rom version: 20AA
    2013/05/30 17:14:32 1CB91B8 r V14 [mouse] parental lock setting: FF FF FF FF
    2013/05/30 17:14:32 1CB91B8 r V14 [mouse] parental lock disabled
    2013/05/30 17:14:32 1CB91B8 r V14 [mouse] parental lock setting after disabling: FF FF FF FF
    2013/05/30 17:14:32 1CB91B8 r V14 [mouse] type: VideoGuard Sky Germany (098C), caid: 098C
    2013/05/30 17:14:32 1CB91B8 r V14 [mouse] serial: ########, BoxID: ########, baseyear: 2004
    2013/05/30 17:14:32 1CB91B8 r V14 [mouse] ready for requests
    2013/05/30 17:14:32 1CB91B8 r V14 [mouse] found card system videoguard2
    2013/05/30 17:14:32 1CB91B8 r V14 [videoguard2] card detected
    2013/05/30 17:14:32 1CB91B8 r V14 [videoguard2] type: VideoGuard Sky Germany (098C)
    2013/05/30 17:14:32 1CB91B8 r V14 [videoguard2] tier: 0046, expiry date: 2013/09/20-01:00:00
    2013/05/30 17:14:32 1CB91B8 r V14 [videoguard2] tier: 0056, expiry date: 2013/09/20-01:00:00
    2013/05/30 17:14:32 1CB91B8 r V14 [videoguard2] tier: 0057, expiry date: 2013/09/20-01:00:00
    2013/05/30 17:14:32 1CB91B8 r V14 [videoguard2] tier: 0058, expiry date: 2013/09/20-01:00:00
    2013/05/30 17:14:32 1CB91B8 r V14 [videoguard2] tier: 005a, expiry date: 2013/09/20-01:00:00
    2013/05/30 17:14:32 1CB91B8 r V14 [videoguard2] tier: 0065, expiry date: 2013/09/20-01:00:00
    2013/05/30 17:14:32 1CB91B8 r V14 [videoguard2] tier: 0066, expiry date: 2013/09/20-01:00:00
    2013/05/30 17:14:32 1CB91B8 r V14 [videoguard2] tier: 0067, expiry date: 2013/09/20-01:00:00
    2013/05/30 17:14:32 1CB91B8 r V14 [videoguard2] tier: 0068, expiry date: 2013/09/20-01:00:00
    2013/05/30 17:14:32 1CB91B8 r V14 [videoguard2] tier: 0069, expiry date: 2013/09/20-01:00:00
    2013/05/30 17:14:32 1CB91B8 r V14 [videoguard2] tier: 006a, expiry date: 2013/09/20-01:00:00
    2013/05/30 17:14:32 1CB91B8 r V14 [videoguard2] tier: 006b, expiry date: 2013/09/20-01:00:00
    2013/05/30 17:14:32 1CB91B8 r V14 [videoguard2] tier: 006c, expiry date: 2013/09/20-01:00:00
    2013/05/30 17:14:32 1CB91B8 r V14 [videoguard2] tier: 006d, expiry date: 2013/09/20-01:00:00
    2013/05/30 17:14:32 1CB91B8 r V14 [videoguard2] tier: 006e, expiry date: 2013/09/20-01:00:00
    2013/05/30 17:14:32 1CB91B8 r V14 [videoguard2] tier: 006f, expiry date: 2013/09/20-01:00:00
    2013/05/30 17:14:32 1CB91B8 r V14 [videoguard2] tier: 007b, expiry date: 2013/09/20-01:00:00
    2013/05/30 17:14:32 1CB91B8 r V14 [videoguard2] tier: 007d, expiry date: 2013/09/20-01:00:00
    2013/05/30 17:14:32 1CB91B8 r V14 [videoguard2] tier: 0081, expiry date: 2013/09/20-01:00:00
    2013/05/30 17:14:32 1CB91B8 r V14 [videoguard2] tier: 008e, expiry date: 2013/09/20-01:00:00
    2013/05/30 17:14:32 1CB91B8 r V14 [videoguard2] tier: 00c0, expiry date: 2013/09/20-01:00:00
    2013/05/30 17:14:32 1CB91B8 r V14 [videoguard2] tier: 00c7, expiry date: 2013/09/20-01:00:00
    2013/05/30 17:14:32 1CB91B8 r V14 [videoguard2] tier: 00c8, expiry date: 2013/09/20-01:00:00
    2013/05/30 17:14:32 1CB91B8 r V14 [videoguard2] tier: 00c9, expiry date: 2013/09/20-01:00:00
    2013/05/30 17:14:32 1CB91B8 r V14 [videoguard2] tier: 00ca, expiry date: 2013/09/20-01:00:00
    2013/05/30 17:14:32 1CB91B8 r V14 [videoguard2] tier: 00cb, expiry date: 2013/09/20-01:00:00
    2013/05/30 17:14:32 1CB91B8 r V14 [videoguard2] tier: 00f3, expiry date: 2013/09/20-01:00:00
    2013/05/30 17:14:32 1CB91B8 r V14 [videoguard2] tier: 00fa, expiry date: 2013/09/20-01:00:00
    2013/05/30 17:14:32 1CB91B8 r V14 [videoguard2] tier: 00ff, expiry date: 2013/09/20-01:00:00
    2013/05/30 17:14:38 0 s init for all local cards done
    2013/05/30 17:14:38 0 s anti cascading disabled
    2013/05/30 17:14:38 1CCB250 c anonymous disconnected from 192.168.1.100
    2013/05/30 17:14:43 1CCE410 c encrypted cccam-client 192.168.1.100 granted (hallo, au=auto (1 reader))
    2013/05/30 17:14:53 1CCE410 c hallo (098C&000000/0000/0008/98:19DD66E4821396295FDA546EEACB1F4A): rejected group (0 ms) (0/0/0/0) (no matching reader)
    2013/05/30 17:14:57 1CCE410 c hallo (098C&000000/0000/0008/98:CD5D70AE7DD1F68862DE5A2DA0F5F6AE): rejected group (0 ms) (0/0/0/0) (no matching reader)
    2013/05/30 17:15:04 1CCE410 c hallo (098C&000000/0000/0029/98:B1A5B1865AB9B7EC4D5BF34ACB6C7DF9): rejected group (0 ms) (0/0/0/0) (no matching reader)
    2013/05/30 17:15:10 1CCE410 c hallo (098C&000000/0000/0014/98:BE766A2CA372CDFDDAFFC27116794F40): rejected group (0 ms) (0/0/0/0) (no matching reader)
    2013/05/30 17:15:25 1CCE410 c hallo (098C&000000/0000/0014/98:DF2F6FADD694BB5C983AB7A6D386EC50): rejected group (0 ms) (0/0/0/0) (no matching reader)
    2013/05/30 17:15:36 1CCE410 c hallo (098C&000000/0000/0014/98:1422BD343F3BBEE08E7B581FCF061D56): rejected group (0 ms) (0/0/0/0) (no matching reader)
    2013/05/30 17:15:47 1CCE410 c hallo (098C&000000/0000/0014/98:BBFA25C94DD1987C95D104A551179F9D): rejected group (0 ms) (0/0/0/0) (no matching reader)
    2013/05/30 17:15:58 1CCE410 c hallo (098C&000000/0000/0014/98:79CBAB5EE2167B895679DF07254A4BF5): rejected group (0 ms) (0/0/0/0) (no matching reader)
    2013/05/30 17:16:09 1CCE410 c hallo (098C&000000/0000/0014/98:B44CB6A2AFD9F20556D6F2DB1986865C): rejected group (0 ms) (0/0/0/0) (no matching reader)
    2013/05/30 17:16:20 1CCE410 c hallo (098C&000000/0000/0014/98:84216E4AE73E816BB62DDFB6FE26E84D): rejected group (1 ms) (0/0/0/0) (no matching reader)
    2013/05/30 17:16:35 1CCE410 c hallo (098C&000000/0000/0014/98:302D482B9AE8E871AF833570DDE49504): rejected group (0 ms) (0/0/0/0) (no matching reader)
    2013/05/30 17:16:36 1CB91B8 r V14 [videoguard2] hallo emmtype=unique, len=33, idx=0, cnt=1: written (15 ms)
    2013/05/30 17:16:46 1CCE410 c hallo (098C&000000/0000/0014/98:1C6B0CBD113C2536F7446211C34273A4): rejected group (0 ms) (0/0/0/0) (no matching reader)
    2013/05/30 17:16:57 1CCE410 c hallo (098C&000000/0000/0014/98:1D4CE758494E26BB89D7D0E2B6EC19B3): rejected group (0 ms) (0/0/0/0) (no matching reader)
    2013/05/30 17:17:08 1CCE410 c hallo (098C&000000/0000/0014/98:71E497EB21F71A794C8582897C3828D5): rejected group (1 ms) (0/0/0/0) (no matching reader)
    2013/05/30 17:17:19 1CCE410 c hallo (098C&000000/0000/0014/98:EB9598CD463411C122526E188747B0E4): rejected group (0 ms) (0/0/0/0) (no matching reader)
    2013/05/30 17:17:30 1CCE410 c hallo (098C&000000/0000/0014/98:15AD31755AB1D7D6001B0AB84676CB79): rejected group (0 ms) (0/0/0/0) (no matching reader)
    2013/05/30 17:17:45 1CCE410 c hallo (098C&000000/0000/0014/98:9EF39FB9A41367734D5BADC71B26A113): rejected group (1 ms) (0/0/0/0) (no matching reader)
    2013/05/30 17:17:56 1CCE410 c hallo (098C&000000/0000/0014/98:86A3352167468BCA537854EE9CF598F5): rejected group (1 ms) (0/0/0/0) (no matching reader)
    2013/05/30 17:18:07 1CCE410 c hallo (098C&000000/0000/0014/98:C55689F192C7D4A8DF0EEB26104BD2AF): rejected group (0 ms) (0/0/0/0) (no matching reader)
    2013/05/30 17:18:18 1CCE410 c hallo (098C&000000/0000/0014/98:DAA6921150D56D1CCA338B3D02B76770): rejected group (1 ms) (0/0/0/0) (no matching reader)
    2013/05/30 17:18:29 1CCE410 c hallo (098C&000000/0000/0014/98:1672602C479EEE23788C359643137207): rejected group (0 ms) (0/0/0/0) (no matching reader)
    2013/05/30 17:18:40 1CCE410 c hallo (098C&000000/0000/0014/98:46C364771270D0FA08661F9082F0CB60): rejected group (0 ms) (0/0/0/0) (no matching reader)
    2013/05/30 17:18:55 1CCE410 c hallo (098C&000000/0000/0014/98:77478E6FA0AE4E0B919F98C58E01C95B): rejected group (0 ms) (0/0/0/0) (no matching reader)
    2013/05/30 17:19:01 1CCE410 c hallo (098C&000000/0000/0008/98:A33B6903963496507AAAC2C64E660538): rejected group (0 ms) (0/0/0/0) (no matching reader)
    2013/05/30 17:19:05 1CCE410 c hallo (098C&000000/0000/0008/98:69868A3E5A90CD6A140F5C127324D972): rejected group (1 ms) (0/0/0/0) (no matching reader)
    2013/05/30 17:19:08 1CCE410 c hallo (098C&000000/0000/002A/98:5D1463DCB57451B502A4A524DC38257E): rejected group (0 ms) (0/0/0/0) (no matching reader)
    2013/05/30 17:19:12 1CCE410 c hallo (098C&000000/0000/002A/98:6838E34F9B0904772F60BACDED022215): rejected group (0 ms) (0/0/0/0) (no matching reader)
    2013/05/30 17:19:24 1CCE410 c hallo (098C&000000/0000/0009/98:5DD087CAD9735BF8051802364F9A1BE6): rejected group (1 ms) (0/0/0/0) (no matching reader)
    2013/05/30 17:19:28 1CCE410 c hallo (098C&000000/0000/0009/98:06FBA28300F369F5C036D4480CA985DE): rejected group (0 ms) (0/0/0/0) (no matching reader)
    2013/05/30 17:19:35 1CCE410 c hallo (098C&000000/0000/0009/98:F5CBCDFB8E46977244A95828F8EEF254): rejected group (0 ms) (0/0/0/0) (no matching reader)
    2013/05/30 17:53:28 1CCE410 c hallo (098C&000000/0000/002A/98:4EB780D26DE135CF6CEDCF1CE1DEBECF): rejected group (0 ms) (0/0/0/0) (no matching reader)
    2013/05/30 17:53:32 1CCE410 c hallo (098C&000000/0000/002A/98:C8DC2E82DF05EE6C8205370ACA4B3B49): rejected group (0 ms) (0/0/0/0) (no matching reader)
    2013/05/30 17:53:34 1CCE410 c hallo (098C&000000/0000/0025/98:CD3F24D3CB3DB1FD59258F1644739D6F): rejected group (0 ms) (0/0/0/0) (no matching reader)
    2013/05/30 17:53:58 1CCE410 c hallo (098C&000000/0000/0022/98:ECB94FE73AA9C35D1558699F294E8D96): rejected group (0 ms) (0/0/0/0) (no matching reader)
    2013/05/30 17:54:02 1CCE410 c hallo (098C&000000/0000/0022/98:35EC119593C7613D1E70B73847B97384): rejected group (0 ms) (0/0/0/0) (no matching reader)

    oscam.conf


    [global]
    logfile = /var/log/ipc/OScam.log
    unlockparental = 1
    nice = -10
    maxlogsize = 500
    waitforcards_extra_delay = 3000
    preferlocalcards = 1
    dropdups = 1
    saveinithistory = 1
    lb_mode = 1
    lb_save = 500
    lb_retrylimit = 1300
    lb_stat_cleanup = 6
    lb_reopen_mode = 1
    lb_savepath = /var/tmp/oscam.stat
    clientdyndns = 1


    [cccam]
    port = 12000
    version = 2.3.0
    reshare = 1
    stealth = 1
    reshare_mode = 0
    updateinterval = 240


    [webif]
    httpport = 12100
    httpuser = test
    httppwd = 1234
    httphelplang = de
    httprefresh = 30
    httpallowed = 192.168.1.0-192.168.1.200
    appendchaninfo = 1

    oscam.server
    [reader]
    label = V14
    enable = 1
    protocol = mouse
    device = /dev/ttyUSB0
    caid = 098C
    services=SkyGermanyMitHDPlus
    boxid = 12345678
    detect = CD
    mhz = 600
    cardmhz = 369
    group = 1
    emmcache = 1,3,2
    ecmwhitelist = 098C:91,96,59

    oscam.user

    [account]
    user = test
    pwd = test
    group = 1
    caid = 1702,1833,1830
    services = SkyGermany,HDplus
    uniq = 3
    cccmaxhops = 0
    cccreshare = 0

    [accout]
    user = hallo
    pwd = 7020
    group = 1
    au = 1

    oscam.services


    [SkyGermanyMitHDPlus]
    caid = 1702,1833,09C4,098C,1830,1843
    provid = 000000,000001,000002,000003
    srvid=0083,000A,000B,002B,006B,0029,006A,007A,007B ,007D,007E,007F,0009,0008 ,0017,0014,0015,0204,0021,0203,0023,4462,0075,007C ,0010 ,0025,0024,002A,0032,001B,001D,2EFE,4461,0026,0016 ,0034,0081,0072,0069,0035,006C,003B,0084,79E0,0037 ,0077,3331,00A8,0011,00DD,00DE,00FD,014D,0143,0139 ,012F,0125,011B,0107,0111,016B,0175,0106,0110,011A ,0124,012E,0138,0142,014C,0156,0160,00FC,00DF,0070 ,000D,0076,000C,0082,000E,0071,003A,0039,6FFF,7001 ,6FF1,0206,0018,0074,0022,006F,0019,001C,001A,0027 ,0038,0013,700A,07FF,006E,1519,151A,2E9A,5273,5274 ,EF10,EF11,EF14,EF15,EF74, EF75,EF76,EF77,157F,0080

    oscam.srvid


    ##############HD+######################
    1830,1843,09C4,098C:1519|Astra HD+|Tele5 HD|TV|
    1830,1843,09C4,098C:5273|Astra HD+|NICK/CC HD|TV|
    1830,1843,09C4,098C:5274|Astra HD+|N24 HD|TV|
    1830,1843,09C4,098C:EF10|Astra HD+|RTL HD|TV|
    1830,1843,09C4,098C:EF11|Astra HD+|VOX HD|TV|
    1830,1843,09C4,098C:EF14|Astra HD+|Sport1 HD|TV|
    1830,1843,09C4,098C:EF15|Astra HD+|RTL2 HD|TV|
    1830,1843,09C4,098C:EF74|Astra HD+|SAT.1 HD|TV|
    1830,1843,09C4,098C:EF75|Astra HD+|ProSieben HD|TV|
    1830,1843,09C4,098C:EF76|Astra HD+|kabel eins HD|TV|
    1830,1843,09C4,098C:EF77|Astra HD+|Sixx HD|TV|
    1830,1843,09C4,098C:2E9B|Astra HD+|Super RTL HD|TV|
    1830,1843,09C4,098C:151A|Astra HD+|DMAX HD|TV|
    1830,1843,09C4,098C:157F|Astra HD+|Deluxe Music HD|TV|
    1830,1843,09C4,098C:277E|Astra HD+|. (SD)|TV|
    ##############SKY_DE####################
    1702,1722,1833,1834,09C4,09C7,098C:000C|Sky|NatGeo Wild|TV|Sky Welt
    1702,1722,1833,1834,09C4,09C7,098C:000D|Sky|National Geographic|TV|Sky Welt
    1702,1722,1833,1834,09C4,09C7,098C:000E|Sky|Discovery Channel|TV|Sky Welt
    1702,1722,1833,1834,09C4,09C7,098C:0010|Sky|Fox|TV|Sky Welt
    1702,1722,1833,1834,09C4,09C7,098C:0013|Sky|Junior|TV|Sky Welt
    1702,1722,1833,1834,09C4,09C7,098C:0015|Sky|Beate-Uhse.tv|TV|Sky Welt
    1702,1722,1833,1834,09C4,09C7,098C:0016|Sky|Heimatkanal|TV|Sky Welt
    1702,1722,1833,1834,09C4,09C7,098C:0017|Sky|Sky Krimi|TV|Sky Welt
    1702,1722,1833,1834,09C4,09C7,098C:0018|Sky|Unitel Classica|TV|Sky Welt
    1702,1722,1833,1834,09C4,09C7,098C:001A|Sky|Disney Junior|TV|Sky Welt
    1702,1722,1833,1834,1837,09C4,09C7,098C:001B|Sky|RTL Crime|TV|Sky Welt
    1702,1722,1833,1834,09C4,09C7,098C:001C|Sky|Disney XD|TV|Sky Welt
    1702,1722,1833,1837,1834,09C4,09C7,098C:001D|Sky|RTL Passion|TV|Sky Welt
    1702,1722,1833,1834,09C4,09C7,098C:0022|Sky|Disney Channel|TV|Sky Welt
    1702,1722,1833,1834,09C4,09C7,098C:0024|Sky|Syfy|TV|Sky Welt
    1702,1722,1833,1834,09C4,09C7,098C:002A|Sky|13th Street Universal|TV|Sky Welt
    1702,1722,1833,1834,09C4,09C7,098C:0032|Sky|TNT Serie|TV|Sky Welt
    1702,1722,1833,1834,09C4,09C7,098C:0034|Sky|Spiegel Geschichte|TV|Sky Welt
    1702,1722,1833,1834,09C4,09C7,098C:00A8|Sky|Motorvision TV|TV|Sky Welt
    1702,1722,1833,1834,09C4,09C7,098C:0206|Sky|Goldstar TV|TV|Sky Welt
    1702,1722,1833,1834,09C4,09C7,098C:0008|Sky|Sky Comedy|TV|Sky Film
    1702,1722,1833,1834,09C4,09C7,098C:0009|Sky|Sky Action|TV|Sky Film
    1702,1722,1833,1834,1836,09C4,09C7,098C:000A|Sky|Sky Cinema|TV|Sky Film
    1702,1722,1833,1834,09C4,09C7,098C:000B|Sky|Sky Cinema +1|TV|Sky Film
    1702,1722,1833,1834,09C4,09C7,098C:0014|Sky|Sky Emotion|TV|Sky Film
    1702,1722,1833,1834,09C4,09C7,098C:0019|Sky|Disney Cinemagic|TV|Sky Film
    1702,1722,1833,1834,09C4,09C7,098C:0029|Sky|Sky Hits|TV|Sky Film
    1702,1722,1833,1834,09C4,09C7,098C:002B|Sky|Sky Cinema +24|TV|Sky Film
    1702,1722,1833,1834,09C4,09C7,098C:0203|Sky|MGM|TV|Sky Film
    1702,1722,1833,1834,09C4,09C7,098C:0204|Sky|Sky Nostalgie|TV|Sky Film
    1702,1722,1833,1834,09C4,09C7,098C:0011|Sky|Sky Sport News|TV|Sky Sport
    1702,1833,09C4,098C:001E|Sky|Sky Sport Austria|TV|Sky Sport
    1702,1722,1833,1834,09C4,09C7,098C:00DD|Sky|Sky Sport 1|TV|Sky Sport
    1702,1722,1833,1834,09C4,09C7,098C:00DE|Sky|Sky Sport 2|TV|Sky Sport
    1702,1722,1833,1834,09C4,09C7,098C:00FD|Sky|Sky Sport 3|TV|Sky Sport
    1702,1722,1833,1834,09C4,09C7,098C:0107|Sky|Sky Sport 10|TV|Sky Sport
    1702,1722,1833,1834,09C4,09C7,098C:0111|Sky|Sky Sport 11|TV|Sky Sport
    1702,1722,1833,1834,09C4,09C7,098C:011B|Sky|Sky Sport 9|TV|Sky Sport
    1702,1722,1833,1834,09C4,09C7,098C:0125|Sky|Sky Sport 8|TV|Sky Sport
    1702,1722,1833,1834,09C4,09C7,098C:012F|Sky|Sky Sport 7 / F1 Multisignal|TV|Sky Sport
    1702,1722,1833,1834,09C4,09C7,098C:0139|Sky|Sky Sport 6 / F1 Highlights|TV|Sky Sport
    1702,1722,1833,1834,09C4,09C7,098C:0143|Sky|Sky Sport 5 / F1 Daten|TV|Sky Sport
    1702,1722,1833,1834,09C4,09C7,098C:014D|Sky|Sky Sport 4 / F1 Cockpit|TV|Sky Sport
    1702,1722,1833,1834,09C4,09C7,098C:016B|Sky|Sky Sport 12|TV|Sky Sport
    1702,1722,1833,1834,09C4,09C7,098C:0175|Sky|Sky Sport 13|TV|Sky Sport
    1702,1722,1833,1834,09C4,09C7,098C:00DF|Sky|Sky Bundesliga|TV|Sky Bundesliga
    1702,1722,1833,1834,09C4,09C7,098C:0106|Sky|Sky Bundesliga 1|TV|Sky Bundesliga
    1702,1722,1833,1834,09C4,09C7,098C:0110|Sky|Sky Bundesliga 2|TV|Sky Bundesliga
    1702,1722,1833,1834,09C4,09C7,098C:011A|Sky|Sky Bundesliga 3|TV|Sky Bundesliga
    1702,1722,1833,1834,09C4,09C7,098C:0124|Sky|Sky Bundesliga 4|TV|Sky Bundesliga
    1702,1722,1833,1834,09C4,09C7,098C:012E|Sky|Sky Bundesliga 5|TV|Sky Bundesliga
    1702,1722,1833,1834,09C4,09C7,098C:0138|Sky|Sky Bundesliga 6|TV|Sky Bundesliga
    1702,1722,1833,1834,09C4,09C7,098C:0142|Sky|Sky Bundesliga 7|TV|Sky Bundesliga
    1702,1722,1833,1834,09C4,09C7,098C:014C|Sky|Sky Bundesliga 8|TV|Sky Bundesliga
    1702,1722,1833,1834,09C4,09C7,098C:0156|Sky|Sky Bundesliga 9|TV|Sky Bundesliga
    1702,1722,1833,1834,09C4,09C7,098C:0160|Sky|Sky Bundesliga 10|TV|Sky Bundesliga
    1702,1722,1833,1834,09C4,09C7,098C:00FC|Sky|Sky Bundesliga 11|TV|Sky Bundesliga
    1702,1722,1833,1834,09C4,09C7,098C:0012|Sky|Sky Select Info|TV|Sky Select
    1702,1722,1833,1834,09C4,09C7,098C:00FB|Sky|Sky Select 1|TV|Sky Select
    1702,1722,1833,1834,09C4,09C7,098C:00FE|Sky|Sky Select Event A|TV|Sky Select
    1702,1722,1833,1834,09C4,09C7,098C:0105|Sky|Sky Select 2|TV|Sky Select
    1702,1722,1833,1834,09C4,09C7,098C:0108|Sky|Sky Select Event B|TV|Sky Select
    1702,1722,1833,1834,09C4,09C7,098C:010F|Sky|Sky Select 3|TV|Sky Select
    1702,1722,1833,1834,09C4,09C7,098C:0119|Sky|Sky Select 4|TV|Sky Select
    1702,1722,1833,1834,09C4,09C7,098C:0123|Sky|Sky Select 5|TV|Sky Select
    1702,1722,1833,1834,09C4,09C7,098C:012D|Sky|Sky Select 6|TV|Sky Select
    1702,1722,1833,1834,09C4,09C7,098C:0137|Sky|Sky Select 7|TV|Sky Select
    1702,1722,1833,1834,09C4,09C7,098C:0141|Sky|Sky Select 8|TV|Sky Select
    1702,1722,1833,1834,09C4,09C7,098C:014B|Sky|Sky Select 9|TV|Sky Select
    1702,1722,1833,1834,09C4,09C7,098C:0078|Sky|Sky Select HD|TV|Sky Select
    1702,1722,1833,1834,09C4,09C7,098C:0069|Sky|Sky Sport HD Extra|TV|Sky Sport HD
    1702,1722,1833,1834,09C4,09C7,098C:006A|Sky|Sky Action HD|TV|Sky Film HD
    1702,1722,1833,1834,09C4,09C7,098C:006B|Sky|Sky Hits HD|TV|Sky Film HD
    1702,1722,1833,1834,09C4,09C7,098C:006C|Sky|Sky Sport News HD|TV|Sky Sport HD
    1702,1722,1833,1834,09C4,09C7,098C:006F|Sky|Disney Cinemagic HD|TV|Sky Film HD
    1702,1722,1833,1834,09AF,09C4,09C7,098C:0070|Sky|NatGeo HD|TV|Sky Welt HD
    1702,1722,1833,1834,09C4,09C7,098C:0071|Sky|History HD|TV|Sky Welt HD
    1702,1722,1833,1834,09C4,09C7,098C:0072|Sky|Sky Sport HD 2|TV|Sky Sport HD
    1702,1722,1833,1834,09C4,09C7,098C:0077|Sky|ESPN America HD|TV|Sky Sport HD
    1702,1722,1833,1834,09C4,09C7,098C:0081|Sky|Sky Sport HD 1|TV|Sky Sport HD
    1702,1722,1833,1834,09C4,09C7,098C:0082|Sky|Discovery Channel HD|TV|Sky Welt HD
    1702,1722,1833,1834,09C4,09C7,098C:0083|Sky|Sky Cinema HD|TV|Sky Film HD
    1702,1722,1833,1834,09C4,09C7,098C:0084|Sky|Eurosport HD|TV|Sky Welt HD
    1702,1722,1833,1834,09C4,09C7,098C:007C|Sky|FOX HD|TV|Sky Welt HD
    1702,1722,1833,1834,09C4,09C7,098C:0076|Sky|Nat Geo Wild HD|TV|Sky Welt HD
    1702,1722,1833,1834,09C4,09C7,098C:0074|Sky|Disney Channel HD|TV|Sky Welt HD
    1702,1722,1833,1834,09C4,09C7,098C:6FB8|Sky|MTV Live HD|TV|Sky Welt HD
    1702,1722,1833,1834,09C4,09C7,098C:6FB9|Sky|MTV Live HD|TV|Sky Welt HD
    1702,1722,1833,1834,09C4,09C7,098C:006E|Sky|Sky Atlantic HD|TV|Sky Film HD
    1702,1722,1833,1834,09C4,09C7,098C:007B|Sky|TNT Serie HD|TV|Sky Welt HD
    1702,1722,1833,1834,09C4,09C7,098C:007A|Sky|Sport1+ HD|TV|Sky Sport HD
    1702,1722,1833,1834,09C4,09C7,098C:007D|Sky|AXN HD|TV|Sky Welt HD
    1702,1722,1833,1834,09C4,09C7,098C:007F|Sky|13th Street HD|Sky Welt HD
    1702,1722,1833,1834,09C4,09C7,098C:007E|Sky|Syfy HD|Sky Welt HD
    1702,1722,1833,1834,09C4,09C7,098C:0080|Sky|E! Entertainment HD|Sky Welt HD
    1702,1833,09C4,098C:0075|Sky|Sky 3D|TV|Sky 3D
    1702,1833,09C4,098C:0021|Sky|Kinowelt TV|TV|Sky Welt Extra
    1702,1833,09C4,098C:0023|Sky|TNT Film (TCM)|TV|Sky Welt Extra
    1702,1833,09C4,0D22,098C:0025|Sky|AXN Action|TV|Sky Welt Extra
    1702,1833,1837,09C4,098C:0026|Sky|Romance TV|TV|Sky Welt Extra
    1702,1833,09C4,098C:0038|Sky|Boomerang|TV|Sky Welt Extra
    1702,1833,09C4,098C:003A|Sky|History|TV|Sky Welt Extra
    1702,1833,09C4,0D22,098C:3331|Sky|ESPN America (S)|TV|Sky Welt Extra
    1702,1833,09C4,0D22,098C:3335|Sky|ESPN America|TV|Sky Welt Extra
    1702,1833,09C4,0100,098C:07FF|Sky|Animax|TV|Sky Welt Extra
    1702,1833,09C4,098C:0027|Sky|Cartoon Network (S)|TV|Sky Welt Extra
    1702,1833,09C4,098C:0037|Sky|Eurosport 2|TV|Sky Welt Extra
    1702,1833,1837,09C4,098C:2EFE|Sky|RTL Living|TV|Sky Welt Extra
    1702,1833,09C4,098C:0039|Sky|Biography Channel|TV|Sky Welt Extra
    1702,1833,09C4,098C:4461|Sky|Sat.1 emotions|TV|Sky Welt Extra
    1702,1833,09C4,098C:4462|Sky|Kabel1 Classics|TV|Sky Welt Extra
    1702,1833,09C4,0D00,098C:7001|Sky|MTV Germany|TV|Sky Welt Extra
    1702,1833,09C4,0D00,098C:7009|Sky|MTV Entertainment (S)|TV|Sky Welt Extra
    1702,1833,09C4,0D00,098C:700A|Sky|Nicktoons (S)|TV|Sky Welt Extra
    1702,1833,1837,09C4,098C:003B|Sky|sportdigital|TV|Sky sonstige
    1702,1722,1833,1834,1836,09C4,09C7,098C:0201|Sky|Blue Movie Info|TV|Sky Erotik
    1702,1722,1833,1834,1836,09C4,09C7,098C:0159|Sky|Blue Movie 1|TV|Sky Erotik
    1702,1722,1833,1834,1836,09C4,09C7,098C:0163|Sky|Blue Movie 2|TV|Sky Erotik
    1702,1722,1833,1834,1836,09C4,09C7,098C:016D|Sky|Blue Movie 3|TV|Sky Erotik
    1702,1722,1833,1834,1836,09C4,09C7,098C:0079|Sky|Blue Movie Nights HD|TV|Sky Erotik
     
    #1
  2. phantom

    Nervigen User Advertisement

  3. Warpilein
    Offline

    Warpilein Stamm User

    Registriert:
    14. Dezember 2010
    Beiträge:
    1.209
    Zustimmungen:
    405
    Punkte für Erfolge:
    83
    AW: CS mit Rasbarry Pi und Oscam will nicht hell werden

    Du hast ne v14?dann mach mal aus 1702 098c ;-)

    Gesendet von meinem NexusHD2 mit Tapatalk 2
     
    #2
  4. kenshiculus
    Offline

    kenshiculus Guest

    AW: CS mit Rasbarry Pi und Oscam will nicht hell werden

    beim user "hallo" steht ja nichts von einer CA ID 1702 sondern die 098C
    Ich kenne mich mit der V14 nicht aus, aber bitte mal überprüfen:
    Müssen die services unbedingt sein? Wenn ja, warum net beim user "hallo" auch?
    Die ecmwhitelist ist korrekt?
     
    #3
  5. hismastersvoice
    Offline

    hismastersvoice Spezialist

    Registriert:
    22. August 2012
    Beiträge:
    507
    Zustimmungen:
    242
    Punkte für Erfolge:
    43
    AW: CS mit Rasbarry Pi und Oscam will nicht hell werden

    Nimm die Services beim Reader raus...
    Sonst sieht es gut aus.
    Cardmhz und MHz auf 369
    Und lieber die Karte in Fastmode

    ins7e11 = 15


    Hier mal meine...
    Ist zwar ne V13 wenn du die Caid und Ident änderst müsste es auch bei V14 laufen
    Device musst natürlich auch anpassen...

    label = sky
    description = Sky V13 - NDS Videoguard 2
    protocol = mouse
    device = /dev/SKY
    caid = 09C4
    boxid = 12345678
    ins7e11 = 15
    detect = cd
    mhz = 600
    ident = 09C4:000000
    group = 1
    emmcache = 1,3,10
    blockemm-unknown = 1
    blockemm-s = 1
    ndsversion = 2

    Gesendet von meinem iPad mit Tapatalk HD
     
    #4
    1 Person gefällt das.
  6. bombadil
    Offline

    bombadil MFC Digital Eliteboard Team

    Registriert:
    2. Oktober 2008
    Beiträge:
    11.816
    Zustimmungen:
    9.118
    Punkte für Erfolge:
    113
    Beruf:
    Kaufmann
    Ort:
    Mittelerde
    AW: CS mit Rasbarry Pi und Oscam will nicht hell werden

    Hi,

    ändere mal die ecmwitelist
    Code:
    ecmwhitelist   = 98
    
    oder
    Code:
    ecmwhitelist   = 098C:98
    
    Grüße
    Bombadil
     
    #5
    1 Person gefällt das.
  7. eisbaer500
    Offline

    eisbaer500 Newbie

    Registriert:
    27. Mai 2011
    Beiträge:
    2
    Zustimmungen:
    1
    Punkte für Erfolge:
    0
    AW: CS mit Rasbarry Pi und Oscam will nicht hell werden

    Hey super :emoticon-0157-sun::emoticon-0157-sun::emoticon-0157-sun:

    Ich weis zwar noch nicht wodrann es genau gelegen hat aber es läuft.

    Danke ich werde berichten was es war

    DANKE DANKE :emoticon-0157-sun: :emoticon-0148-yes:
     
    #6
    1 Person gefällt das.
  8. bombadil
    Offline

    bombadil MFC Digital Eliteboard Team

    Registriert:
    2. Oktober 2008
    Beiträge:
    11.816
    Zustimmungen:
    9.118
    Punkte für Erfolge:
    113
    Beruf:
    Kaufmann
    Ort:
    Mittelerde
    AW: CS mit Rasbarry Pi und Oscam will nicht hell werden

    Hi,

    in deiner ecmwhitelist sind die ECM Längen definiert. Aus dem Log kannst du die Länge ablesen, ich markiere das mal rot
    diese muss dann dort stehen, alle anderen werden jetzt abgewiesen. Im Moment wird bei der V14,glaube ich, nur diese benutzt.

    Sollte mal ein Sender nicht hell werden, dann schau da mal hin. Steht dort ein anderer Wert, dann trag ihn einfach in die List mit hinzu, dorch Komma getrennt.

    Grüße
    Bombadil
     
    #7
  9. captaincomic
    Offline

    captaincomic Ist oft hier

    Registriert:
    4. Februar 2013
    Beiträge:
    112
    Zustimmungen:
    34
    Punkte für Erfolge:
    28
    AW: CS mit Rasbarry Pi und Oscam will nicht hell werden

    Ich plädiere immer wieder dafür nur mit Minimalconfigs zu starten: services, idents, ecmwhitelist ... weg lassen. Erstmal alles zum laufen bringen, dann mit dem Feinschliff beginnen.
     
    #8
    1 Person gefällt das.
  10. kenshiculus
    Offline

    kenshiculus Guest

    AW: CS mit Rasbarry Pi und Oscam will nicht hell werden

    Meine Worte, weshalb immer solche Mördereinstellungen benutzen, wenn man den Sinn und Zweck dessen nicht verstanden hat?
     
    #9

Diese Seite empfehlen